Regional Weather Roundup
Issued by NWS Sterling, VA

Home | Current Version | Previous Version | Graphics & Text | Print | Product List | Glossary On
Versions: 1 2 3 4 5 6 7 8 9 10 11 12 13 14 15 16 17 18 19 20 21 22 23 24 25 26 27 28 29 30 31 32 33 34 35 36 37 38 39 40 41 42 43 44 45 46 47 48 49 50
000
ASUS41 KLWX 240711
RWRLWX

REGIONAL WEATHER ROUNDUP
NATIONAL WEATHER SERVICE BALTIMORE MD/WASHINGTON DC
300 AM EDT MON APR 24 2017

Note: "FAIR" indicates few or no clouds below 12,000 feet
with no significant weather and/or obstructions to visibility.
 TC=TEMPERATURE CELSIUS

 * =Non NWS site. Station does not report precipitation (e.g. rain,
    snow, etc.), thunder, or fog.

DCZ001-MDZ009-015-VAZ040>042-051-053>054-240800-
WASHINGTON METRO

CITY           SKY/WX    TMP DP  RH WIND       PRES   REMARKS
WASHINGTON NAT LGT RAIN  55  48  77 E6        30.07F
DULLES         LGT RAIN  52  47  83 E3        30.07F
ANDREWS AFB    CLOUDY    52  46  82 NE3       30.05F
FT BELVOIR     CLOUDY    52  49  88 CALM      30.06F
QUANTICO       CLOUDY    56  47  71 E10       30.07F
COLLEGE PARK*  CLOUDY    52  47  83 CALM      30.07F
LEESBURG*      LGT RAIN  54  50  87 CALM      30.08F
MANASSAS*      LGT RAIN  53  48  83 N5        30.07F

$$

MDZ006>007-011-014-240800-
BALTIMORE METRO

CITY           SKY/WX    TMP DP  RH WIND       PRES   REMARKS
BWI AIRPORT    CLOUDY    53  49  86 E5        30.07F
MD SCIENCE CTR   N/A     56  44  64 MISG      30.08F
MARTIN STATE   CLOUDY    54  48  82 CALM      30.10F
ANNAPOLIS      CLOUDY    55  46  71 E3        30.07F
FORT MEADE*    CLOUDY    50  46  87 CALM      30.10F

$$

MDZ012-015-019>023-240800-
MARYLAND EASTERN SHORE

CITY           SKY/WX    TMP DP  RH WIND       PRES   REMARKS
OCEAN CITY     CLOUDY    51  46  83 NE9       30.06F
SALISBURY      LGT RAIN  50  49  96 NE7       30.06F
BAY BRIDGE AP* CLOUDY    52  45  76 E6        30.08S
EASTON*        CLOUDY    52  46  80 E6        30.11S

$$

MDZ017>025-240800-
SOUTHERN MARYLAND

CITY           SKY/WX    TMP DP  RH WIND       PRES   REMARKS
PATUXENT RIVER CLOUDY    52  49  89 NE8       30.05F
ST INIGOES     CLOUDY    52  48  86 NE8       30.03F
LEONARDTOWN*   CLOUDY    50  45  81 NE3       30.06F

$$

MDZ003>005-240800-
NORTH CENTRAL MARYLAND

CITY           SKY/WX    TMP DP  RH WIND       PRES   REMARKS
FREDERICK*     CLOUDY    52  52 100 CALM      30.11S
HAGERSTOWN APT CLOUDY    54  44  69 CALM      30.07F
WESTMINSTER*   CLOUDY    52  46  82 CALM      30.07F

$$

MDZ501>502-240800-
WESTERN MARYLAND

CITY           SKY/WX    TMP DP  RH WIND       PRES   REMARKS
OAKLAND*       CLOUDY    43  36  75 E13       30.02F
CUMBERLAND*    CLOUDY    50  43  76 CALM      30.10F

$$

VAZ025>031-240800-
SHENANDOAH VALLEY

CITY           SKY/WX    TMP DP  RH WIND       PRES   REMARKS
WINCHESTER*    DRIZZLE   48  43  81 CALM      30.07F
FRONT ROYAL*   CLOUDY    50  46  87 CALM      30.05F
LURAY*         LGT RAIN  48  48 100 N3        30.05F
NEW MARKET*    CLOUDY    48  46  95 CALM      30.05F
STAUNTON*      LGT RAIN  47  46  95 N5        30.06F
WAYNESBORO*    CLOUDY    46  46 100 N6        30.03F

$$

WVZ021-048>050-054>055-240800-
EASTERN WEST VIRGINIA PANHANDLE

CITY           SKY/WX    TMP DP  RH WIND       PRES   REMARKS
MARTINSBURG    CLOUDY    51  46  83 CALM      30.07F
PETERSBURG*    DRIZZLE   51  49  92 CALM      30.06F

$$

VAZ036>039-050-240800-
CENTRAL FOOTHILLS

CITY           SKY/WX    TMP DP  RH WIND       PRES   REMARKS
CHARLOTTESVILL LGT RAIN  51  49  92 N6        30.04F
CULPEPER*      LGT RAIN  51  51  98 N3        30.07F
ORANGE*        CLOUDY    50  48  93 CALM      30.05F
GORDONSVILLE*  CLOUDY    51  49  91 NE5       30.04F
WARRENTON*     DRIZZLE   52  48  86 NE3       30.05F

$$

VAZ055>057-240800-
NORTH AND CENTRAL PIEDMONT

CITY           SKY/WX    TMP DP  RH WIND       PRES   REMARKS
FREDERICKSBRG* CLOUDY    53  48  82 NE6       30.04F
STAFFORD*      CLOUDY    51  49  92 N3        30.09F

$$

NCZ024-NYZ072-PAZ021-071-VAZ022-071-240800-
OTHER REGIONAL OBSERVATIONS

CITY           SKY/WX    TMP DP  RH WIND       PRES   REMARKS
NEW YORK CITY  CLEAR     50  38  63 NE3       30.13F
PHILADELPHIA   CLOUDY    51  45  79 CALM      30.11S
PITTSBURGH     PTCLDY    50  32  50 CALM      30.03S
ROANOKE        RAIN      48  47  96 NE3       30.02F
RICHMOND       RAIN      51  50  96 NE9       30.00F FOG
RALEIGH        CLOUDY    53  52  96 E8        29.92R FOG

$$

ANZ530>537-240800-
MARINE OBSERVATIONS

STATION/POSITION TIME  TEMP    WIND        PRES
                       AIR SEA DIR/SP/G
                 (UTC) (F)     (DEG/KT/KT) (MB)
THOMAS PT LIGHT  0700   54 58   50/  8/  8   N/A
BALT KEY BRIDGE  0648   54     110/  7/  8 1018.6F
COVE POINT       0648   52      90/ 12/ 15 1018.2F
LEWISETTA        0648   55 63   70/ 12/ 17 1016.7F
SOLOMONS ISLAND  0648   53 61   50/  7/  8   N/A
PINEY POINT      0648           60/  6/  8   N/A

$$




USA.gov is the U.S. government's official web portal to all federal, state and local government web resources and services.